[[{"header":{"parameterUnit":"m.s-1","parameterCategory":1,"la1":30.2991,"la2":30.254,"lo1":-89.0895,"lo2":-89.0444,"dy":0.0017,"dx":0.0017,"nx":28,"ny":28,"refTime":"2025-07-23T03:00:00:Z","depth":0,"parameterNumber":2,"parameterNumberName":"U-component_of_WINDS"},"data":[0,0,0,0,0,0,0,0,0,0,0,0,0,0,0,0,0,0,0,0,0,0,0,0,0,0,0,0,0,0,0,0,0,0,0,0,0,0,0,0,0,0,0,0,0,0,0,0,0,0,0,0,0,0,0,0,0,0,2.0985,2.0985,0,2.0964,2.0964,2.0963,2.0877,2.0875,2.0873,2.0871,2.0851,2.0853,2.0854,0,0,0,0,0,0,0,0,0,0,0,0,0,2.0955,2.0956,2.0985,2.0985,2.0985,2.0964,2.0964,2.0963,2.0878,2.0875,2.0873,2.0871,2.0851,2.0852,2.0854,0,0,0,0,0,0,0,0,0,0,0,0,0,2.0954,2.0956,2.0985,2.0939,2.0935,2.0964,2.0964,2.0963,2.0878,2.0875,2.0872,2.0869,2.085,2.0852,2.0854,2.0926,0,0,2.086,2.0861,0,0,0,0,0,0,0,0,2.0954,2.0955,2.0946,2.0943,2.0938,2.092,2.0945,2.0951,2.0879,2.09,2.0871,2.0868,2.0877,2.0876,2.0879,2.0925,2.0924,2.0861,2.0862,2.0863,2.0863,0,0,0,0,0,0,0,2.0954,2.0956,2.0977,2.0946,2.0941,2.0921,2.0917,2.0946,2.0905,2.0898,2.0892,2.089,2.0874,2.0877,2.0878,2.0924,2.086,2.0862,2.0863,2.0864,2.1031,2.1034,0,0,0,0,0,0,2.0961,2.0956,2.0977,2.0976,2.0939,2.0924,2.092,2.0929,2.0905,2.0898,2.0893,2.0886,2.0875,2.0876,2.0877,2.0962,2.0863,2.0864,2.0866,2.1028,2.1032,2.1035,0,0,0,0,0,0,2.096,2.0963,2.0978,2.0965,2.0965,2.0927,2.0938,2.093,2.0933,2.0901,2.0893,2.0904,2.0873,2.0874,2.0915,2.096,2.0865,2.0867,2.1024,2.1029,2.1034,2.1131,0,0,0,0,0,0,2.096,2.0964,2.099,2.0966,2.0966,2.1017,2.0941,2.0932,2.0937,2.0928,2.0909,2.0903,2.0871,2.0913,2.0917,2.0961,2.0869,2.102,2.1026,2.1032,2.1124,2.1138,2.1151,0,0,0,0,0,2.0959,2.1018,2.0992,2.0995,2.0998,2.1019,2.1019,2.098,2.0941,2.0968,2.0947,2.0904,2.0954,2.0918,2.0922,2.0967,2.1017,2.1025,2.1032,2.1117,2.1136,2.1151,0,0,0,0,0,0,2.1048,2.1014,2.0984,2.1037,2.1032,2.1005,2.1037,2.1001,2.1007,2.0998,2.095,2.0947,2.0996,2.0985,2.0945,2.1036,2.0978,2.0987,2.1042,2.1059,2.1073,2.1075,2.087,0,0,0,0,0,2.1074,2.1094,2.1062,2.1112,2.1111,2.1075,2.1082,2.1053,2.1046,2.1043,2.1025,2.1021,2.1035,2.1046,2.1058,2.1121,2.1117,2.1154,2.1168,2.118,2.1188,2.1223,2.124,2.1059,2.1059,2.1059,0,0,2.1128,2.1111,2.1127,2.113,2.1122,2.1145,2.1073,2.1099,2.1116,2.1047,2.1086,2.1073,2.1064,2.1117,2.114,2.111,2.1237,2.1189,2.1198,2.1201,2.1233,2.125,2.1265,2.1064,2.1064,2.1063,0,0,2.1238,2.1226,2.1267,2.1261,2.1251,2.1227,2.1237,2.1215,2.1204,2.1242,2.1191,2.121,2.1236,2.1233,2.1235,2.1346,2.1307,2.135,2.1424,2.1458,2.1473,2.1485,2.1527,2.1542,2.1359,2.1359,2.1359,0,2.1306,2.1337,2.1293,2.1324,2.1328,2.1266,2.1308,2.1305,2.1299,2.1304,2.127,2.1303,2.1292,2.1345,2.1373,2.1375,2.1387,2.1353,2.1474,2.1486,2.1497,2.1537,2.1552,2.1365,2.1364,2.1363,2.1363,0,2.1423,2.1445,2.148,2.1477,2.1484,2.152,2.1483,2.1496,2.1467,2.1447,2.1487,2.1472,2.1481,2.1491,2.1462,2.1541,2.1523,2.1482,2.1423,2.1521,2.1557,2.1572,2.1372,2.137,2.1369,2.1367,0,0,2.1589,2.1561,2.1575,2.1574,2.1558,2.1575,2.1609,2.1618,2.1631,2.1629,2.1658,2.1682,2.1645,2.1647,2.1617,2.1648,2.174,2.1604,2.1603,2.1632,2.1828,2.1861,2.1879,2.1713,2.1716,2.1718,2.183,0,2.1695,2.1752,2.1714,2.1778,2.1799,2.1742,2.1772,2.1766,2.1749,2.1765,2.1745,2.1765,2.1713,2.1714,2.1742,2.1723,2.1779,2.1714,2.1742,2.1743,2.1748,2.1897,2.1931,2.2038,2.1844,2.1846,2.1848,0,2.1827,2.1832,2.1898,2.188,2.1888,2.1915,2.1921,2.1937,2.193,2.1916,2.1919,2.1882,2.1916,2.1856,2.1904,2.186,2.1869,2.1862,2.1865,2.1868,2.1803,2.1907,2.2071,2.2088,2.1869,2.1867,2.1866,0,2.1945,2.1968,2.201,2.2011,2.199,2.2012,2.2004,2.1994,2.2002,2.2008,2.2013,2.2022,2.2028,2.2036,2.2003,2.1963,2.2056,2.1993,2.2047,2.2048,2.207,2.207,2.2241,2.2073,2.2072,2.2072,2.2072,0,2.2069,2.2113,2.2063,2.209,2.2137,2.2094,2.2142,2.2129,2.2121,2.2145,2.2095,2.2119,2.2073,2.2092,2.2067,2.2111,2.2113,2.2104,2.2097,2.211,2.2112,2.2117,2.211,2.2076,2.2075,2.2074,2.2074,0,2.221,2.2178,2.2222,2.2199,2.2194,2.2231,2.2212,2.2236,2.2215,2.2247,2.2251,2.2219,2.224,2.2207,2.2224,2.2206,2.2269,2.225,2.2272,2.2267,2.2323,2.232,2.2505,2.2529,2.2344,2.2345,2.2347,0,2.2292,2.2324,2.2306,2.2318,2.2314,2.2334,2.2343,2.2301,2.2313,2.2308,2.2334,2.235,2.2362,2.2398,2.2376,2.2389,2.2371,2.2435,2.2373,2.2386,2.2376,2.2375,2.238,2.2449,2.2451,2.2453,2.2455,0,2.2444,2.2427,2.244,2.245,2.2461,2.2467,2.2468,2.2481,2.2438,2.2453,2.2474,2.2483,2.25,2.2518,2.2526,2.2519,2.2482,2.2474,2.2488,2.2503,2.2515,2.2512,2.231,2.2471,2.2469,2.2468,2.2467,2.2466,2.2559,2.2586,2.2578,2.2596,2.2592,2.2596,2.2618,2.26,2.2617,2.2628,2.2602,2.263,2.2624,2.2631,2.2629,2.265,2.2622,2.2641,2.2647,2.2653,2.2663,2.251,2.2651,2.2651,2.265,2.265,2.2649,0,2.271,2.2702,2.2719,2.2723,2.2738,2.2699,2.2699,2.2715,2.2739,2.2737,2.2749,2.2774,2.2791,2.2772,2.2786,2.2807,2.279,2.2813,2.2812,2.2812,2.2685,2.2674,2.2826,2.2826,2.2826,2.2826,2.2826,2.2826,2.2791,2.2835,2.2818,2.2861,2.2852,2.2879,2.2883,2.2886,2.2884,2.2914,2.2928,2.2915,2.2906,2.292,2.2935,2.2928,2.2937,2.2966,2.2955,2.2838,2.282,2.2804,2.2793,2.2968,2.2968,2.3079,2.308,2.3081]},{"header":{"parameterUnit":"m.s-1","parameterCategory":1,"la1":30.2991,"la2":30.254,"lo1":-89.0895,"lo2":-89.0444,"dy":0.0017,"dx":0.0017,"nx":28,"ny":28,"refTime":"2025-07-23T03:00:00:Z","depth":0,"parameterNumber":3,"parameterNumberName":"V-component_of_WINDS"},"data":[0,0,0,0,0,0,0,0,0,0,0,0,0,0,0,0,0,0,0,0,0,0,0,0,0,0,0,0,0,0,0,0,0,0,0,0,0,0,0,0,0,0,0,0,0,0,0,0,0,0,0,0,0,0,0,0,0,0,-3.4378,-3.4379,0,-3.4504,-3.4506,-3.4507,-3.4505,-3.4503,-3.4502,-3.45,-3.463,-3.4634,-3.4639,0,0,0,0,0,0,0,0,0,0,0,0,0,-3.4135,-3.414,-3.4378,-3.4379,-3.4381,-3.4504,-3.4506,-3.4508,-3.4505,-3.4503,-3.4501,-3.4499,-3.4628,-3.4634,-3.464,0,0,0,0,0,0,0,0,0,0,0,0,0,-3.4249,-3.4141,-3.4378,-3.4395,-3.4398,-3.4504,-3.4506,-3.4508,-3.4506,-3.4503,-3.4501,-3.4498,-3.4626,-3.4633,-3.4641,-3.4738,0,0,-3.4664,-3.4667,0,0,0,0,0,0,0,0,-3.4243,-3.4258,-3.4391,-3.4394,-3.4397,-3.4486,-3.4468,-3.4585,-3.4507,-3.4465,-3.45,-3.4497,-3.4584,-3.4595,-3.4624,-3.4744,-3.475,-3.4664,-3.4669,-3.4672,-3.4674,0,0,0,0,0,0,0,-3.4235,-3.4253,-3.4428,-3.4393,-3.4397,-3.4397,-3.441,-3.449,-3.4537,-3.4468,-3.4468,-3.4483,-3.4585,-3.4617,-3.4627,-3.4752,-3.4664,-3.4671,-3.4676,-3.4678,-3.496,-3.4963,0,0,0,0,0,0,-3.4223,-3.4246,-3.4424,-3.4432,-3.4312,-3.4403,-3.4418,-3.446,-3.4536,-3.4545,-3.4485,-3.4483,-3.4605,-3.4618,-3.4632,-3.4752,-3.4672,-3.4679,-3.4684,-3.4957,-3.4961,-3.4964,0,0,0,0,0,0,-3.4218,-3.4239,-3.4419,-3.4339,-3.4362,-3.441,-3.4457,-3.4464,-3.4496,-3.4549,-3.4558,-3.4509,-3.4604,-3.4621,-3.4712,-3.4756,-3.4683,-3.4689,-3.4954,-3.4958,-3.4962,-3.4993,0,0,0,0,0,0,-3.4211,-3.4237,-3.4274,-3.434,-3.4366,-3.4497,-3.446,-3.4468,-3.4509,-3.4507,-3.4574,-3.4582,-3.4603,-3.4701,-3.472,-3.4765,-3.4695,-3.495,-3.4956,-3.4961,-3.4988,-3.4998,-3.5006,0,0,0,0,0,-3.4203,-3.4278,-3.4276,-3.4298,-3.4414,-3.4499,-3.4514,-3.4537,-3.4512,-3.455,-3.4585,-3.458,-3.4748,-3.471,-3.4731,-3.478,-3.4947,-3.4954,-3.496,-3.4984,-3.4996,-3.5006,0,0,0,0,0,0,-3.4216,-3.4286,-3.4286,-3.4384,-3.4436,-3.4499,-3.4547,-3.4548,-3.4608,-3.4603,-3.4629,-3.4644,-3.4735,-3.4767,-3.4723,-3.4879,-3.4845,-3.4856,-3.4855,-3.4867,-3.4876,-3.4867,-3.4702,0,0,0,0,0,-3.423,-3.4294,-3.4352,-3.4433,-3.4459,-3.4499,-3.4537,-3.455,-3.4605,-3.4626,-3.4668,-3.4721,-3.4786,-3.4828,-3.4891,-3.4992,-3.5008,-3.5037,-3.5045,-3.5053,-3.5062,-3.512,-3.5134,-3.4986,-3.4986,-3.4985,0,0,-3.426,-3.4307,-3.4345,-3.4437,-3.4479,-3.4545,-3.4517,-3.4588,-3.4637,-3.4637,-3.4726,-3.4758,-3.4819,-3.4917,-3.4961,-3.4946,-3.5107,-3.5061,-3.5066,-3.5072,-3.5128,-3.5142,-3.5155,-3.499,-3.4989,-3.4989,0,0,-3.4349,-3.4391,-3.4463,-3.4506,-3.457,-3.4596,-3.4613,-3.4677,-3.4698,-3.4788,-3.479,-3.4849,-3.496,-3.5004,-3.5041,-3.5149,-3.5147,-3.5168,-3.5215,-3.5271,-3.5283,-3.5294,-3.5333,-3.5347,-3.5178,-3.5178,-3.5178,0,-3.4379,-3.4478,-3.4501,-3.4572,-3.4613,-3.4617,-3.4691,-3.4731,-3.4812,-3.484,-3.4822,-3.4962,-3.5004,-3.5112,-3.5139,-3.5168,-3.519,-3.5161,-3.528,-3.529,-3.53,-3.5339,-3.5353,-3.518,-3.518,-3.5179,-3.5179,0,-3.4512,-3.4581,-3.4632,-3.4711,-3.4757,-3.483,-3.4864,-3.4909,-3.4918,-3.4947,-3.5039,-3.5089,-3.5162,-3.5189,-3.5198,-3.5299,-3.5288,-3.5274,-3.524,-3.5316,-3.5353,-3.5367,-3.5183,-3.5182,-3.5182,-3.5181,0,0,-3.4612,-3.4704,-3.4722,-3.4758,-3.483,-3.4883,-3.4957,-3.5029,-3.5067,-3.5123,-3.5186,-3.5281,-3.5269,-3.5311,-3.5326,-3.5375,-3.5459,-3.5355,-3.5357,-3.5374,-3.5575,-3.5585,-3.5602,-3.5458,-3.5461,-3.5463,-3.557,0,-3.471,-3.484,-3.4863,-3.4977,-3.5042,-3.5047,-3.5111,-3.5162,-3.5191,-3.525,-3.5282,-3.5349,-3.5328,-3.5354,-3.5402,-3.5438,-3.55,-3.5431,-3.5517,-3.552,-3.5503,-3.5621,-3.5632,-3.573,-3.5584,-3.5587,-3.5588,0,-3.484,-3.49,-3.5021,-3.5085,-3.5113,-3.517,-3.5239,-3.5295,-3.5354,-3.5372,-3.5419,-3.5429,-3.5506,-3.5468,-3.5576,-3.5528,-3.5565,-3.5589,-3.5593,-3.5602,-3.5559,-3.5634,-3.5762,-3.5777,-3.5611,-3.5609,-3.5607,0,-3.4903,-3.5014,-3.5101,-3.5131,-3.5208,-3.5248,-3.5282,-3.5338,-3.538,-3.5441,-3.5469,-3.5537,-3.5575,-3.5628,-3.5657,-3.5626,-3.5763,-3.5727,-3.578,-3.578,-3.5809,-3.5807,-3.5946,-3.5832,-3.5831,-3.5831,-3.5831,0,-3.5009,-3.5083,-3.513,-3.5183,-3.5267,-3.5293,-3.5375,-3.5408,-3.5458,-3.5519,-3.5527,-3.5584,-3.5617,-3.5679,-3.5701,-3.5788,-3.5805,-3.5822,-3.5827,-3.5822,-3.582,-3.5847,-3.5841,-3.5835,-3.5834,-3.5833,-3.5833,0,-3.5093,-3.5127,-3.5223,-3.5287,-3.5306,-3.5364,-3.542,-3.5473,-3.5502,-3.5579,-3.5598,-3.5644,-3.5718,-3.5751,-3.5841,-3.5857,-3.5956,-3.5956,-3.5936,-3.5938,-3.599,-3.5985,-3.6152,-3.6176,-3.6045,-3.6046,-3.6047,0,-3.5159,-3.5216,-3.5288,-3.5329,-3.5364,-3.543,-3.5474,-3.5503,-3.5548,-3.562,-3.5665,-3.5738,-3.5799,-3.5916,-3.5958,-3.6028,-3.603,-3.6084,-3.6041,-3.6034,-3.6033,-3.6029,-3.6036,-3.6092,-3.6093,-3.6094,-3.6095,0,-3.5274,-3.5288,-3.5351,-3.542,-3.5473,-3.5528,-3.5583,-3.5617,-3.5654,-3.5705,-3.5781,-3.5828,-3.5921,-3.5995,-3.6068,-3.6103,-3.6106,-3.6108,-3.6125,-3.612,-3.6107,-3.6116,-3.5959,-3.6104,-3.6103,-3.6103,-3.6102,-3.6102,-3.5352,-3.5403,-3.5462,-3.5532,-3.5577,-3.5628,-3.5681,-3.5717,-3.5781,-3.5859,-3.5872,-3.5953,-3.6012,-3.611,-3.6148,-3.6212,-3.62,-3.6223,-3.6229,-3.6235,-3.6238,-3.6096,-3.6226,-3.6225,-3.6225,-3.6225,-3.6225,0,-3.5467,-3.5506,-3.557,-3.5647,-3.5703,-3.5701,-3.5762,-3.5808,-3.588,-3.5934,-3.5994,-3.6081,-3.6153,-3.6201,-3.6275,-3.6317,-3.632,-3.6335,-3.6333,-3.6341,-3.6245,-3.6224,-3.6331,-3.6331,-3.6331,-3.6331,-3.6331,-3.6331,-3.5534,-3.5622,-3.5643,-3.5754,-3.5792,-3.5871,-3.5906,-3.5954,-3.5998,-3.6096,-3.6156,-3.6187,-3.6239,-3.6316,-3.6383,-3.6395,-3.6422,-3.6438,-3.645,-3.6359,-3.6348,-3.6337,-3.6318,-3.6443,-3.6444,-3.6541,-3.6542,-3.6543]}]]